When you browse on this site, cookies collect data to enhance your experience and personalize the content and advertising you see.
Visit our Privacy Policy to learn more. By continuing to use the site, you agree to this use of cookies and data.
  • In Hungary
  • List of Countries
  • For 7 days
  • Water Temperature
  • Weather Map
  • News
  • Weather Widgets
  • user-avatar
    Login

    Hourly Weather Neznayka

    Today, 24 October, Thursday

    Time Temperature Precipitation Wind Pressure Humidity
    00:00 +8°C° 0 mm 4 mps 747 mmHg 93%
    01:00 +8°C° 0 mm 4 mps 746 mmHg 96%
    02:00 +8°C° 0 mm 4 mps 747 mmHg 96%
    03:00 +9°C° 0 mm 3 mps 747 mmHg 96%
    04:00 +9°C° 0 mm 3 mps 747 mmHg 96%
    05:00 +9°C° 0 mm 3 mps 748 mmHg 96%
    06:00 +8°C° 0 mm 2 mps 748 mmHg 96%
    07:00 +8°C° 0 mm 2 mps 748 mmHg 96%
    08:00 +8°C° 0 mm 2 mps 748 mmHg 92%
    09:00 +9°C° 0 mm 3 mps 749 mmHg 89%
    10:00 +10°C° 0 mm 3 mps 749 mmHg 85%
    11:00 +10°C° 0 mm 2 mps 749 mmHg 81%
    12:00 +12°C° 0 mm 2 mps 749 mmHg 78%
    13:00 +12°C° 0 mm 2 mps 750 mmHg 74%
    14:00 +12°C° 0 mm 2 mps 750 mmHg 74%
    15:00 +12°C° 0 mm 1 mps 750 mmHg 73%
    16:00 +12°C° 0 mm 1 mps 750 mmHg 72%
    17:00 +12°C° 0 mm 1 mps 751 mmHg 76%
    18:00 +11°C° 0 mm 1 mps 751 mmHg 79%
    19:00 +11°C° 0 mm 1 mps 751 mmHg 82%
    20:00 +9°C° 0 mm 2 mps 751 mmHg 83%
    21:00 +9°C° 0 mm 2 mps 751 mmHg 85%
    22:00 +8°C° 0 mm 2 mps 751 mmHg 86%
    23:00 +8°C° 0 mm 1 mps 751 mmHg 86%

    Tomorrow, 25 October, Friday

    Time Temperature Precipitation Wind Pressure Humidity
    00:00 +8°C° 0 mm 1 mps 751 mmHg 86%
    01:00 +7°C° 0 mm 0 mps 751 mmHg 86%
    02:00 +7°C° 0 mm 0 mps 752 mmHg 86%
    03:00 +7°C° 0 mm 1 mps 752 mmHg 85%
    04:00 +7°C° 0 mm 1 mps 752 mmHg 85%
    05:00 +7°C° 0 mm 1 mps 752 mmHg 85%
    06:00 +6°C° 0 mm 0 mps 752 mmHg 85%
    07:00 +6°C° 0 mm 0 mps 752 mmHg 85%
    08:00 +8°C° 0 mm 1 mps 752 mmHg 82%
    09:00 +9°C° 0 mm 1 mps 752 mmHg 79%
    10:00 +10°C° 0 mm 1 mps 753 mmHg 76%
    11:00 +10°C° 0 mm 2 mps 753 mmHg 74%
    12:00 +12°C° 0 mm 2 mps 753 mmHg 72%
    13:00 +12°C° 0 mm 3 mps 753 mmHg 70%
    14:00 +12°C° 0 mm 3 mps 753 mmHg 71%
    15:00 +12°C° 0 mm 2 mps 753 mmHg 73%
    16:00 +12°C° 0 mm 2 mps 752 mmHg 75%
    17:00 +10°C° 0 mm 2 mps 753 mmHg 78%
    18:00 +10°C° 0 mm 1 mps 753 mmHg 82%
    19:00 +9°C° 0 mm 1 mps 753 mmHg 85%
    20:00 +9°C° 0 mm 1 mps 753 mmHg 86%
    21:00 +9°C° 0 mm 1 mps 753 mmHg 87%
    22:00 +9°C° 0 mm 1 mps 753 mmHg 88%
    23:00 +8°C° 0 mm 1 mps 753 mmHg 88%

    Day after tomorrow, 26 October, Saturday

    Time Temperature Precipitation Wind Pressure Humidity
    00:00 +8°C° 0 mm 1 mps 753 mmHg 89%
    01:00 +7°C° 0 mm 2 mps 753 mmHg 90%
    02:00 +7°C° 0 mm 2 mps 753 mmHg 90%
    03:00 +8°C° 0 mm 1 mps 753 mmHg 91%
    04:00 +7°C° 0 mm 1 mps 753 mmHg 91%
    05:00 +6°C° 0 mm 2 mps 753 mmHg 91%
    06:00 +6°C° 0 mm 2 mps 753 mmHg 91%
    07:00 +6°C° 0 mm 2 mps 752 mmHg 91%
    08:00 +7°C° 0 mm 2 mps 752 mmHg 89%
    09:00 +8°C° 0 mm 3 mps 752 mmHg 87%
    10:00 +9°C° 0 mm 3 mps 752 mmHg 85%
    11:00 +10°C° 0 mm 4 mps 752 mmHg 82%
    12:00 +10°C° 0 mm 5 mps 751 mmHg 79%
    13:00 +13°C° 0 mm 5 mps 751 mmHg 76%
    14:00 +13°C° 0 mm 6 mps 750 mmHg 76%
    15:00 +13°C° 0 mm 6 mps 750 mmHg 77%
    16:00 +13°C° 0 mm 6 mps 749 mmHg 77%
    17:00 +11°C° 0 mm 6 mps 749 mmHg 76%
    18:00 +11°C° 0 mm 6 mps 748 mmHg 75%
    19:00 +10°C° 0 mm 6 mps 748 mmHg 75%
    20:00 +10°C° 0 mm 6 mps 747 mmHg 78%
    21:00 +9°C° 0 mm 7 mps 747 mmHg 82%
    22:00 +9°C° 0 mm 7 mps 747 mmHg 86%
    23:00 +9°C° 0 mm 7 mps 746 mmHg 83%

    , 27 October, Sunday

    Time Temperature Precipitation Wind Pressure Humidity
    00:00 +9°C° 0 mm 7 mps 746 mmHg 81%
    01:00 +8°C° 0 mm 7 mps 745 mmHg 78%
    02:00 +8°C° 0 mm 7 mps 744 mmHg 78%
    03:00 +8°C° 0 mm 7 mps 744 mmHg 77%
    04:00 +7°C° 0 mm 8 mps 743 mmHg 76%
    05:00 +8°C° 0 mm 7 mps 743 mmHg 77%
    06:00 +8°C° 0 mm 7 mps 742 mmHg 77%
    07:00 +8°C° 0 mm 7 mps 741 mmHg 77%
    08:00 +9°C° 0.1 mm 7 mps 741 mmHg 79%
    09:00 +9°C° 0.1 mm 7 mps 740 mmHg 80%
    10:00 +9°C° 0.1 mm 8 mps 740 mmHg 82%
    11:00 +9°C° 1 mm 8 mps 739 mmHg 84%
    12:00 +7°C° 1 mm 8 mps 739 mmHg 86%
    13:00 +7°C° 1 mm 9 mps 738 mmHg 88%
    14:00 +7°C° 0.2 mm 9 mps 738 mmHg 86%
    15:00 +7°C° 0.2 mm 9 mps 738 mmHg 85%
    16:00 +7°C° 0.2 mm 9 mps 737 mmHg 83%
    17:00 +9°C° 0.1 mm 8 mps 737 mmHg 84%
    18:00 +9°C° 0.1 mm 8 mps 737 mmHg 84%
    19:00 +9°C° 0.1 mm 7 mps 736 mmHg 84%
    20:00 +9°C° 0.1 mm 7 mps 737 mmHg 84%
    21:00 +9°C° 0.1 mm 7 mps 737 mmHg 84%
    22:00 +8°C° 0.1 mm 6 mps 737 mmHg 84%
    23:00 +8°C° 0 mm 6 mps 738 mmHg 86%

    27 October, Sunday

    Time Temperature Precipitation Wind Pressure Humidity
    00:00 +9°C° 0 mm 7 mps 746 mmHg 81%
    01:00 +8°C° 0 mm 7 mps 745 mmHg 78%
    02:00 +8°C° 0 mm 7 mps 744 mmHg 78%
    03:00 +8°C° 0 mm 7 mps 744 mmHg 77%
    04:00 +7°C° 0 mm 8 mps 743 mmHg 76%
    05:00 +8°C° 0 mm 7 mps 743 mmHg 77%
    06:00 +8°C° 0 mm 7 mps 742 mmHg 77%
    07:00 +8°C° 0 mm 7 mps 741 mmHg 77%
    08:00 +9°C° 0.1 mm 7 mps 741 mmHg 79%
    09:00 +9°C° 0.1 mm 7 mps 740 mmHg 80%
    10:00 +9°C° 0.1 mm 8 mps 740 mmHg 82%
    11:00 +9°C° 1 mm 8 mps 739 mmHg 84%
    12:00 +7°C° 1 mm 8 mps 739 mmHg 86%
    13:00 +7°C° 1 mm 9 mps 738 mmHg 88%
    14:00 +7°C° 0.2 mm 9 mps 738 mmHg 86%
    15:00 +7°C° 0.2 mm 9 mps 738 mmHg 85%
    16:00 +7°C° 0.2 mm 9 mps 737 mmHg 83%
    17:00 +9°C° 0.1 mm 8 mps 737 mmHg 84%
    18:00 +9°C° 0.1 mm 8 mps 737 mmHg 84%
    19:00 +9°C° 0.1 mm 7 mps 736 mmHg 84%
    20:00 +9°C° 0.1 mm 7 mps 737 mmHg 84%
    21:00 +9°C° 0.1 mm 7 mps 737 mmHg 84%
    22:00 +8°C° 0.1 mm 6 mps 737 mmHg 84%
    23:00 +8°C° 0 mm 6 mps 738 mmHg 86%

    28 October, Monday

    Time Temperature Precipitation Wind Pressure Humidity
    00:00 +7°C° 0 mm 5 mps 738 mmHg 88%
    01:00 +6°C° 0 mm 4 mps 738 mmHg 90%
    02:00 +5°C° 0 mm 4 mps 738 mmHg 91%
    03:00 +5°C° 0 mm 3 mps 739 mmHg 92%
    04:00 +4°C° 0 mm 3 mps 739 mmHg 93%
    05:00 +4°C° 0 mm 3 mps 739 mmHg 93%
    06:00 +4°C° 0 mm 3 mps 738 mmHg 93%
    07:00 +4°C° 0 mm 3 mps 738 mmHg 93%
    08:00 +5°C° 0 mm 4 mps 738 mmHg 93%
    09:00 +7°C° 0 mm 6 mps 737 mmHg 94%
    10:00 +8°C° 0 mm 7 mps 737 mmHg 94%
    11:00 +9°C° 0.1 mm 8 mps 736 mmHg 90%
    12:00 +10°C° 0.1 mm 8 mps 736 mmHg 85%
    13:00 +11°C° 0.1 mm 9 mps 735 mmHg 80%
    14:00 +11°C° 0 mm 8 mps 735 mmHg 79%
    15:00 +11°C° 0 mm 8 mps 735 mmHg 77%
    16:00 +12°C° 0 mm 8 mps 735 mmHg 75%
    17:00 +11°C° 0 mm 7 mps 735 mmHg 77%
    18:00 +11°C° 0 mm 7 mps 735 mmHg 78%
    19:00 +11°C° 0 mm 7 mps 735 mmHg 80%
    20:00 +11°C° 0 mm 7 mps 735 mmHg 81%
    21:00 +11°C° 0 mm 7 mps 735 mmHg 82%
    22:00 +11°C° 0 mm 7 mps 735 mmHg 83%
    23:00 +10°C° 0.2 mm 7 mps 736 mmHg 79%

    29 October, Tuesday

    Time Temperature Precipitation Wind Pressure Humidity
    00:00 +9°C° 0.2 mm 7 mps 736 mmHg 75%
    01:00 +8°C° 0.2 mm 6 mps 736 mmHg 71%
    02:00 +7°C° 0 mm 6 mps 737 mmHg 72%
    03:00 +5°C° 0 mm 6 mps 737 mmHg 73%
    04:00 +6°C° 0 mm 5 mps 738 mmHg 74%
    05:00 +5°C° 0 mm 5 mps 738 mmHg 74%
    06:00 +3°C° 0 mm 5 mps 739 mmHg 74%
    07:00 +3°C° 0 mm 5 mps 739 mmHg 75%
    08:00 +2°C° 0 mm 6 mps 740 mmHg 73%
    09:00 +2°C° 0 mm 7 mps 741 mmHg 71%
    10:00 +2°C° 0 mm 7 mps 742 mmHg 69%
    11:00 +2°C° 0 mm 7 mps 743 mmHg 68%
    12:00 +2°C° 0 mm 6 mps 744 mmHg 68%
    13:00 +1°C° 0 mm 6 mps 745 mmHg 67%
    14:00 +1°C° 0 mm 5 mps 746 mmHg 68%
    15:00 +1°C° 0 mm 5 mps 746 mmHg 68%
    16:00 0°C° 0 mm 5 mps 747 mmHg 69%
    17:00 -1°C° 0 mm 5 mps 748 mmHg 68%
    18:00 -1°C° 0 mm 4 mps 748 mmHg 68%
    19:00 -2°C° 0 mm 4 mps 749 mmHg 67%
    20:00 -1°C° 0 mm 3 mps 750 mmHg 68%
    21:00 -2°C° 0 mm 3 mps 750 mmHg 69%
    22:00 -2°C° 0 mm 2 mps 751 mmHg 70%
    23:00 -2°C° 0 mm 2 mps 751 mmHg 71%
    Show more